DH9SB-6 Weather Reports


time (UTC)temp
C
wind
direction
speed
KPH
gust
KPH
rain 1hr
cm
rain 24hr
cm
rain mn
cm
humidity
%
barometer
mb
20260506215742 11 0.0 0.0 0.28 1.27 1.27 96
20260506214807 11 0.0 0.0 0.28 1.19 1.19 96
20260506213743 11 0.0 4.8 0.30 1.17 1.17 96
20260506212806 11 0.0 0.0 0.28 1.14 1.14 96
20260506211743 11 0.0 1.6 0.30 1.12 1.12 96
20260506210811 12 0.0 0.0 0.33 1.04 1.04 96
20260506205742 12 0.0 0.0 0.36 0.99 0.99 96
20260506204808 12 0.0 0.0 0.43 0.94 0.94 96
20260506203743 12 0.0 0.0 0.38 0.86 0.86 95
20260506202806 12 0.0 0.0 0.38 0.86 0.86 95
20260506201743 12 0.0 1.6 0.36 0.81 0.81 95
20260506200808 12 0.0 0.0 0.30 0.76 0.71 94
20260506195743 12 0.0 0.0 0.20 0.71 0.64 91
20260506194806 12 0.0 0.0 0.10 0.61 0.51 91
20260506193742 12 0.0 0.0 0.10 0.56 0.48 91
20260506192810 12 0.0 0.0 0.10 0.56 0.48 90
20260506191743 12 0.0 0.0 0.05 0.53 0.46 93
20260506190807 12 0.0 0.0 0.03 0.53 0.43 91
20260506185750 12 0.0 0.0 0.03 0.53 0.43 90
20260506184806 12 0.0 0.0 0.05 0.53 0.43 90
20260506183742 12 0.0 0.0 0.03 0.51 0.38 90
20260506182854 12 0.0 0.0 0.03 0.51 0.38 90
20260506181743 12 0.0 0.0 0.03 0.51 0.38 90
20260506180810 12 0.0 0.0 0.05 0.51 0.38 90
20260506175831 12 0.0 0.0 0.05 0.51 0.38 89
20260506174808 12 0.0 0.0 0.03 0.48 0.36 89
20260506173745 12 0.0 0.0 0.05 0.48 0.36 89
20260506172807 12 0.0 0.0 0.05 0.48 0.36 89
20260506171743 13 0.0 0.0 0.10 0.48 0.36 89
20260506170807 13 0.0 0.0 0.10 0.46 0.33 88
20260506165744 13 0.0 0.0 0.13 0.46 0.33 88
20260506164809 13 0.0 0.0 0.13 0.46 0.33 87
20260506163742 13 0.0 0.0 0.13 0.43 0.30 87
20260506162806 13 0.0 0.0 0.13 0.43 0.30 87
20260506161745 13 0.0 0.0 0.10 0.38 0.28 86
20260506160807 13 0.0 0.0 0.10 0.36 0.23 86
20260506155743 13 0.0 0.0 0.10 0.33 0.20 85
20260506154807 13 0.0 0.0 0.15 0.33 0.20 86
20260506153742 13 0.0 0.0 0.15 0.33 0.18 85
20260506152807 13 0.0 0.0 0.15 0.33 0.18 84
20260506151743 13 0.0 0.0 0.15 0.33 0.18 83
20260506150807 13 0.0 1.6 0.13 0.30 0.15 82
20260506145742 13 0.0 1.6 0.10 0.30 0.13 81
20260506144807 15 0.0 0.0 0.03 0.23 0.05 78
20260506143743 15 0.0 0.0 0.00 0.20 0.03 73
20260506142231 16 0.0 0.0 0.00 0.23 0.03 66
20260506141255 17 0.0 1.6 0.00 0.23 0.03 63
20260506140232 17 0.0 0.0 0.00 0.23 0.03 61
20260506135259 17 0.0 1.6 0.00 0.23 0.03 58
20260506134231 18 0.0 0.0 0.00 0.23 0.03 58
20260506133255 18 0.0 0.0 0.00 0.23 0.03 55
20260506132231 18 0.0 0.0 0.00 0.23 0.03 55
20260506131255 18 0.0 0.0 0.00 0.23 0.03 55
20260506130230 19 0.0 1.6 0.00 0.23 0.03 53
20260506125255 19 0.0 0.0 0.00 0.23 0.03 52
20260506124230 18 0.0 1.6 0.00 0.23 0.03 54
20260506123254 18 0.0 0.0 0.00 0.23 0.03 56
20260506122231 19 0.0 0.0 0.00 0.23 0.03 53
20260506121256 20 0.0 0.0 0.00 0.23 0.03 52
20260506120231 21 0.0 0.0 0.00 0.23 0.03 51
20260506115256 20 0.0 0.0 0.00 0.23 0.03 50
20260506114231 20 0.0 1.6 0.00 0.23 0.03 54
20260506113255 19 0.0 1.6 0.00 0.23 0.03 55
20260506112232 18 0.0 0.0 0.00 0.23 0.03 56
20260506111256 18 0.0 0.0 0.00 0.23 0.03 56
20260506110231 19 0.0 0.0 0.00 0.23 0.03 56
20260506105254 18 0.0 1.6 0.00 0.23 0.03 57
20260506104232 18 0.0 0.0 0.00 0.23 0.03 59
20260506103255 18 0.0 0.0 0.00 0.23 0.03 58
20260506102233 18 0.0 0.0 0.00 0.23 0.03 55
20260506101258 18 0.0 1.6 0.00 0.23 0.03 59
20260506100231 18 0.0 0.0 0.00 0.23 0.03 60
20260506095256 18 0.0 0.0 0.00 0.23 0.03 58
20260506094233 18 0.0 0.0 0.00 0.23 0.03 57
20260506093254 18 0.0 0.0 0.00 0.23 0.03 55
20260506092231 18 0.0 0.0 0.00 0.23 0.03 59
20260506091256 17 0.0 0.0 0.00 0.23 0.03 60
20260506090232 18 0.0 0.0 0.00 0.23 0.03 60
20260506085255 17 0.0 0.0 0.00 0.23 0.03 60
20260506084231 18 0.0 0.0 0.00 0.23 0.03 61
20260506083255 17 0.0 0.0 0.00 0.23 0.03 62
20260506082231 17 0.0 0.0 0.00 0.23 0.03 67
20260506081255 17 0.0 0.0 0.00 0.23 0.03 61
20260506080231 18 0.0 0.0 0.00 0.23 0.03 60
20260506073343 19 0.0 0.0 0.00 0.23 0.03 58
20260506072232 19 0.0 0.0 0.00 0.23 0.03 63
20260506071256 18 0.0 0.0 0.00 0.23 0.03 68
20260506070231 17 0.0 0.0 0.00 0.23 0.03 75
20260506062230 14 0.0 0.0 0.00 0.23 0.03 83
20260506061255 13 0.0 0.0 0.00 0.23 0.03 86
20260506060232 13 0.0 0.0 0.00 0.23 0.03 89
20260506051255 11 0.0 0.0 0.03 0.23 0.03 97
20260506050233 11 0.0 0.0 0.03 0.23 0.03 97
20260506044231 11 0.0 0.0 0.03 0.23 0.03 98
20260506043256 11 0.0 0.0 0.03 0.23 0.03 98
20260506042231 10 0.0 3.2 0.00 0.20 0.00 97
20260506041255 10 0.0 0.0 0.00 0.20 0.00 97
20260506040320 10 0.0 0.0 0.00 0.20 0.00 97
20260506035257 10 0.0 0.0 0.00 0.20 0.00 97
20260506034232 10 0.0 0.0 0.00 0.20 0.00 97
20260506033255 10 0.0 0.0 0.00 0.20 0.00 98
20260506032232 10 0.0 0.0 0.00 0.20 0.00 98
20260506031255 11 0.0 0.0 0.00 0.20 0.00 98
20260506030235 11 0.0 0.0 0.00 0.20 0.00 98
20260506025255 11 0.0 0.0 0.00 0.20 0.00 98
20260506024233 11 0.0 0.0 0.00 0.20 0.00 98
20260506023255 10 0.0 0.0 0.00 0.20 0.00 98
20260506022231 11 0.0 0.0 0.00 0.20 0.00 97
20260506021255 11 0.0 0.0 0.00 0.20 0.00 97
20260506020231 10 0.0 1.6 0.00 0.20 0.00 97
20260506015256 10 0.0 0.0 0.00 0.20 0.00 97
20260506014231 10 0.0 0.0 0.00 0.20 0.00 96
20260506013255 10 0.0 0.0 0.00 0.20 0.00 96
20260506012231 11 0.0 0.0 0.00 0.20 0.00 96
20260506011255 11 0.0 0.0 0.00 0.20 0.00 96
20260506010231 11 0.0 0.0 0.00 0.20 0.00 96
20260506005255 11 0.0 0.0 0.00 0.20 0.00 96
20260506004232 11 0.0 0.0 0.00 0.20 0.00 96
20260506003256 11 0.0 0.0 0.00 0.20 0.00 96
20260506002231 11 0.0 0.0 0.00 0.20 0.00 96
20260506001255 11 0.0 0.0 0.00 0.20 0.00 96
20260506000231 12 0.0 0.0 0.00 0.20 0.00 96
20260505235256 12 0.0 0.0 0.00 0.20 0.00 97
20260505234231 12 0.0 0.0 0.00 0.20 0.00 96
20260505233344 12 0.0 0.0 0.00 0.20 0.00 96
20260505232231 12 0.0 0.0 0.00 0.20 0.00 96
20260505231258 12 0.0 3.2 0.00 0.20 0.00 95
20260505230319 12 0.0 0.0 0.00 0.20 0.00 95
20260505225255 12 0.0 0.0 0.00 0.20 0.00 94
20260505224234 12 0.0 0.0 0.00 0.20 0.00 92
20260505223255 12 0.0 0.0 0.00 0.20 0.00 93
20260505222231 13 0.0 0.0 0.00 0.20 0.00 93
20260505221255 13 0.0 0.0 0.00 0.20 0.00 93